軌道要素
Epoch 2023 Feb. 25.0 TT = JDT 2460000.5
T 2023 Mar. 3.01273 TT Rudenko
q 2.2785072 (2000.0) P Q
n 0.07731213 Peri. 70.82251 -0.33185011 -0.89102863
a 5.4572136 Node 42.89771 +0.59947704 -0.45272021
e 0.5824779 Incl. 27.06803 +0.72835622 -0.03335260
P 12.7
>From 311 observations 2010 Jan. 29-2023 Mar. 17, mean residual 0".6.
|